CST,Max TemperatureF,Mean TemperatureF,Min TemperatureF,Max Dew PointF,MeanDew PointF,Min DewpointF,Max Humidity, Mean Humidity, Min Humidity, Max Sea Level PressureIn, Mean Sea Level PressureIn, Min Sea Level PressureIn, Max VisibilityMiles, Mean VisibilityMiles, Min VisibilityMiles, Max Wind SpeedMPH, Mean Wind SpeedMPH, Max Gust SpeedMPH,PrecipitationIn, CloudCover, Events, WindDirDegrees
2013-12-1,35,28,21,27,23,19,93,75,65,30.16,30.06,29.89,10,8,5,8,4,,0.00,4,,27
2013-12-2,41,32,23,34,30,21,100,87,70,29.89,29.66,29.54,7,5,2,18,7,24,0.01,4,Rain,130
2013-12-3,37,34,32,36,34,32,100,98,93,29.70,29.61,29.55,2,1,0,10,5,17,0.04,8,Fog-Rain-Snow,50
2013-12-4,35,26,15,36,30,10,100,94,73,29.82,29.60,29.46,10,4,0,23,9,32,0.04,8,Fog-Rain-Snow,334
2013-12-5,15,9,3,9,2,-4,79,71,62,30.33,30.12,29.82,10,10,7,23,18,29,0.03,2,,288
2013-12-6,10,4,-2,0,-6,-9,72,68,62,30.61,30.46,30.33,10,10,10,15,10,20,0.00,0,,309
2013-12-7,10,2,-5,3,-6,-13,78,67,48,30.70,30.61,30.50,10,10,2,12,6,,0.00,1,Snow,307
2013-12-8,17,12,5,12,8,1,93,80,73,30.49,30.16,29.99,10,3,1,13,7,20,0.00,8,Snow,114
2013-12-9,8,2,-4,3,-5,-9,92,73,56,30.15,30.07,29.90,10,9,0,21,8,25,0.00,1,Snow,251
2013-12-10,19,12,6,14,6,-2,86,73,57,30.21,30.04,29.82,10,8,2,25,15,36,0.00,5,Snow,259
2013-12-11,17,6,-5,14,-6,-13,86,71,61,30.54,30.44,30.22,10,10,2,22,11,29,0.00,1,Snow,282
2013-12-12,23,13,3,16,7,-6,93,77,66,30.33,30.21,30.08,10,10,10,15,7,21,0.00,2,,212
2013-12-13,24,14,5,18,12,0,93,80,68,30.13,30.05,30.01,10,10,10,14,5,20,0.00,1,,52
2013-12-14,19,14,6,14,10,0,86,78,68,30.15,30.11,30.07,10,9,3,18,10,22,0.00,7,Snow,339
2013-12-15,10,8,5,5,0,-4,79,71,62,30.09,30.06,30.02,10,9,2,13,8,18,0.00,7,Snow,355
2013-12-16,21,14,8,18,11,3,93,84,73,30.04,29.99,29.93,10,8,4,12,7,,0.00,6,Snow,190
2013-12-17,32,22,12,27,18,9,93,73,55,30.12,30.05,29.96,10,9,0,32,11,36,0.00,1,Snow,280
2013-12-18,37,22,8,30,22,5,100,80,63,30.08,29.80,29.67,10,10,7,17,6,22,0.00,0,,191
2013-12-19,32,26,21,28,20,18,93,80,74,29.93,29.86,29.77,10,10,2,17,11,24,0.00,3,Snow,20
2013-12-20,21,19,17,19,18,16,100,89,80,29.91,29.86,29.82,10,8,2,14,10,18,0.00,8,Snow,357
2013-12-21,23,20,17,21,18,14,93,89,86,29.89,29.84,29.80,10,7,2,15,6,20,0.00,8,Snow,2
2013-12-22,23,12,0,19,8,-6,93,80,72,30.25,30.02,29.82,10,8,3,21,14,26,0.00,7,Snow,325
2013-12-23,3,-2,-7,-6,-11,-17,78,66,55,30.47,30.39,30.26,10,10,10,20,14,24,0.00,0,,306
2013-12-24,12,0,-13,9,-6,-18,85,69,47,30.46,30.29,30.12,10,9,1,20,8,28,0.00,4,Snow,164
2013-12-25,32,22,12,27,18,9,93,83,68,30.17,30.11,30.07,10,8,1,18,8,28,0.00,7,Snow,260
2013-12-26,32,24,15,27,21,14,100,84,69,30.16,30.09,30.04,10,10,5,10,4,,0.00,5,,216
2013-12-27,42,26,10,32,22,7,100,83,61,30.17,30.07,29.96,10,10,7,16,3,22,0.00,0,,231
2013-12-28,44,30,15,34,27,12,100,84,61,30.01,29.84,29.67,10,9,2,23,6,32,0.00,2,Snow,213
2013-12-29,15,4,-7,12,-7,-15,93,70,51,30.27,30.19,29.96,10,9,2,28,19,39,0.00,3,Snow,321
2013-12-30,6,-2,-9,1,-7,-15,85,74,65,30.26,30.17,30.07,10,7,1,13,4,,0.00,4,Snow,143
2013-12-31,5,0,-4,0,-3,-8,85,77,72,30.28,30.23,30.16,10,7,0,10,6,,0.00,7,Snow,13